Tracking 19634 objects as of 22-May-2019
HD Live streaming from Space Station
objects crossing your sky now

DTUSAT-2

Track DTUSAT-2 now!
10-day predictions
DTUSAT-2 is classified as:


NORAD ID: 40030
Int'l Code: 2014-033W
Perigee: 600.8 km
Apogee: 618.5 km
Inclination: 97.9 °
Period: 96.7 minutes
Semi major axis: 6980 km
RCS: Unknown
Launch date: June 19, 2014
Source: Denmark (DEN)
Launch site: Orenburg, Russia (OREN)

Uplink (MHz): 1268.900
Downlink (MHz): 2401.835
Beacon (MHz): 2401.860
Mode: 9k6CPFSK/1k2 19k2 38k4MSK CW
Call sign: OZ2DTU
Status: Active

aabbcc
Your satellite tracking list
Your tracking list is empty




NASA's NSSDC Master Catalog

Two Line Element Set (TLE):
1 40030U 14033W   19141.32870313  .00000209  00000-0  28440-4 0  9994
2 40030  97.8987  59.2652 0012680 142.4861 217.7242 14.88520885267031
Source of the keplerian elements: AMSAT